軌道要素
Epoch 2024 Oct. 17.0 TT = JDT 2460600.5
T 2025 Mar. 10.47203 TT Rudenko
q 3.4319184 (2000.0) P Q
z -0.0108850 Peri. 290.52595 -0.86089027 -0.48561047
+/-0.0000181 Node 139.16853 -0.33551816 +0.76616763
e 1.0373565 Incl. 166.57311 -0.38248597 +0.42091524
From 250 observations 2024 June 14-Sept. 25, mean residual 0".5.
|